EW1476 Weather Reports


Display with metric or nautical units.
time (UTC)temp
F
wind
direction
speed
MPH
gust
MPH
rain 1hr
in
rain 24hr
in
rain mn
in
humidity
%
barometer
mb
20260510194525 75 313 1.0 3.0 0.00 0.00 0.00 46 1013.2
20260510193011 75 276 1.0 4.0 0.00 0.00 0.00 43 1013.3
20260510191509 76 264 1.0 3.0 0.00 0.00 0.00 44 1013.5
20260510190005 75 275 0.0 1.0 0.00 0.00 0.00 45 1013.6
20260510184504 76 276 0.0 2.0 0.00 0.00 0.00 45 1013.7
20260510183004 75 275 0.0 2.0 0.00 0.00 0.00 46 1013.6
20260510181517 75 326 1.0 2.0 0.00 0.00 0.00 45 1013.7
20260510180014 75 264 1.0 2.0 0.00 0.00 0.00 45 1013.8
20260510174511 75 300 2.0 3.0 0.00 0.00 0.00 45 1013.9
20260510173006 75 262 1.0 4.0 0.00 0.00 0.00 45 1014.1
20260510171505 75 238 2.0 4.0 0.00 0.00 0.00 46 1014.2
20260510170004 74 262 2.0 3.0 0.00 0.00 0.00 48 1014.5
20260510164522 73 307 2.0 4.0 0.00 0.00 0.00 48 1014.4
20260510163017 73 240 0.0 3.0 0.00 0.00 0.00 54 1014.4
20260510161514 72 292 0.0 3.0 0.00 0.00 0.00 52 1014.4
20260510160010 72 279 0.0 2.0 0.00 0.00 0.00 55 1014.5
20260510154508 71 259 1.0 2.0 0.00 0.00 0.00 54 1014.3
20260510153025 70 290 0.0 2.0 0.00 0.00 0.00 56 1014.3
20260510151524 70 254 0.0 0.0 0.00 0.00 0.00 57 1014.3
20260510150030 70 295 1.0 3.0 0.00 0.00 0.00 57 1014.3
20260510144516 69 303 0.0 0.0 0.00 0.00 0.00 57 1014.3
20260510143023 68 248 0.0 0.0 0.00 0.00 0.00 59 1014.1
20260510141509 67 224 0.0 0.0 0.00 0.00 0.00 62 1014.0
20260510140030 65 315 0.0 0.0 0.00 0.00 0.00 70 1014.0
20260510134523 64 323 0.0 0.0 0.00 0.00 0.00 74 1014.0
20260510133021 63 323 0.0 0.0 0.00 0.00 0.00 76 1014.1
20260510131523 61 323 0.0 0.0 0.00 0.00 0.00 81 1014.0
20260510130014 60 323 0.0 0.0 0.00 0.00 0.00 84 1014.0
20260510124520 58 323 0.0 0.0 0.00 0.00 0.00 88 1013.8
20260510123028 56 323 0.0 0.0 0.00 0.00 0.00 92 1014.0
20260510121523 54 323 0.0 0.0 0.00 0.00 0.00 94 1014.0
20260510120025 53 323 0.0 0.0 0.00 0.00 0.00 94 1013.8
20260510114522 52 323 0.0 0.0 0.00 0.00 0.00 94 1013.7
20260510113018 51 323 0.0 0.0 0.00 0.00 0.00 94 1013.5
20260510111516 49 323 0.0 0.0 0.00 0.00 0.00 93 1013.4
20260510110011 48 323 0.0 0.0 0.00 0.00 0.00 92 1013.2
20260510104509 48 323 0.0 0.0 0.00 0.00 0.00 92 1013.0
20260510103006 47 323 0.0 0.0 0.00 0.00 0.00 92 1012.8
20260510101504 47 323 0.0 0.0 0.00 0.00 0.00 92 1012.4
20260510100036 47 323 0.0 0.0 0.00 0.00 0.00 91 1012.3
20260510094520 48 323 0.0 0.0 0.00 0.00 0.00 91 1012.1
20260510093017 48 323 0.0 0.0 0.00 0.00 0.00 92 1012.2
20260510091517 48 323 0.0 0.0 0.00 0.00 0.00 91 1012.1
20260510090010 48 323 0.0 0.0 0.00 0.00 0.00 91 1012.1
20260510084526 48 323 0.0 0.0 0.00 0.00 0.00 91 1012.1
20260510083026 49 323 0.0 0.0 0.00 0.00 0.00 91 1011.9
20260510081520 50 323 0.0 0.0 0.00 0.00 0.00 92 1011.8
20260510080026 50 323 0.0 0.0 0.00 0.00 0.00 92 1011.6
20260510074513 50 323 0.0 0.0 0.00 0.00 0.00 93 1011.6
20260510073010 49 323 0.0 0.0 0.00 0.00 0.00 92 1011.5
20260510071524 49 323 0.0 0.0 0.00 0.00 0.00 91 1011.3
20260510070030 49 129 0.0 0.0 0.00 0.00 0.00 91 1011.2
20260510064522 49 129 0.0 0.0 0.00 0.00 0.00 90 1011.1
20260510063018 50 129 0.0 0.0 0.00 0.00 0.00 90 1011.1
20260510061516 50 129 0.0 0.0 0.00 0.00 0.00 90 1011.0
20260510060028 51 129 0.0 0.0 0.00 0.00 0.00 89 1010.9
20260510054528 52 129 0.0 0.0 0.00 0.00 0.00 89 1011.1
20260510053027 52 129 0.0 0.0 0.00 0.00 0.00 88 1011.2
20260510051524 53 129 0.0 0.0 0.00 0.00 0.00 87 1011.1
20260510050005 54 129 0.0 0.0 0.00 0.00 0.00 89 1011.2
20260510044504 54 129 0.0 0.0 0.00 0.00 0.00 87 1011.2
20260510043001 54 129 0.0 0.0 0.00 0.00 0.00 87 1011.3
20260510041503 54 129 0.0 0.0 0.00 0.00 0.00 87 1011.2
20260510040004 55 129 0.0 0.0 0.00 0.00 0.00 85 1011.3
20260510034504 55 129 0.0 0.0 0.00 0.00 0.00 85 1011.1
20260510033004 56 129 0.0 0.0 0.00 0.00 0.00 85 1011.1
20260510031503 56 129 0.0 0.0 0.00 0.00 0.00 86 1011.1
20260510030003 56 129 0.0 0.0 0.00 0.00 0.00 85 1011.1
20260510024503 57 129 0.0 0.0 0.00 0.00 0.00 83 1010.9
20260510023004 58 129 0.0 0.0 0.00 0.00 0.00 82 1010.7
20260510021507 59 129 0.0 0.0 0.00 0.00 0.00 81 1010.6
20260510020004 60 129 0.0 0.0 0.00 0.00 0.00 80 1010.5
20260510014503 60 129 0.0 0.0 0.00 0.00 0.00 78 1010.6
20260510013007 61 129 0.0 0.0 0.00 0.00 0.00 77 1010.2
20260510011507 62 129 0.0 0.0 0.00 0.00 0.00 76 1010.1
20260510010008 62 129 0.0 0.0 0.00 0.00 0.00 74 1009.8
20260510004507 63 129 0.0 0.0 0.00 0.00 0.00 72 1009.7
20260510003006 63 129 0.0 0.0 0.00 0.00 0.00 70 1009.6
20260510001505 64 129 0.0 0.0 0.00 0.00 0.00 67 1009.5
20260510000014 66 113 0.0 0.0 0.00 0.00 0.00 62 1009.3
20260509234507 66 113 0.0 0.0 0.00 0.00 0.00 62 1009.3
20260509233012 67 113 0.0 0.0 0.00 0.00 0.00 62 1009.2
20260509231512 67 113 0.0 0.0 0.00 0.00 0.00 61 1009.1
20260509230008 67 113 0.0 0.0 0.00 0.00 0.00 61 1009.1
20260509224512 67 113 0.0 0.0 0.00 0.00 0.00 60 1009.0
20260509223011 67 113 0.0 0.0 0.00 0.00 0.00 61 1009.1
20260509221510 68 113 0.0 0.0 0.00 0.00 0.00 62 1009.0
20260509220012 68 113 0.0 0.0 0.00 0.00 0.00 60 1008.9
20260509214520 68 113 0.0 0.0 0.00 0.00 0.00 59 1009.1
20260509213009 68 116 0.0 0.0 0.00 0.00 0.00 60 1009.0
20260509211518 68 116 0.0 0.0 0.00 0.00 0.00 61 1009.1
20260509210017 67 116 0.0 0.0 0.00 0.00 0.00 60 1009.1
20260509204523 67 116 0.0 0.0 0.00 0.00 0.00 60 1009.1
20260509203016 67 121 0.0 0.0 0.00 0.00 0.00 60 1009.1
20260509201514 67 150 0.0 0.0 0.00 0.00 0.00 58 1009.2
20260509200014 68 258 0.0 1.0 0.00 0.00 0.00 58 1009.2